| time (UTC) | temp F | wind direction | speed MPH | gust MPH | rain 1hr in | rain 24hr in | rain mn in | humidity % | barometer mb |
| 20260904101839 | 53 | 294 | 0.0 | 0.0 | 0.00 | 0.00 | 0.00 | 81 | 1021.5 |
| 20260904101336 | 54 | 289 | 0.0 | 0.0 | 0.00 | 0.00 | 0.00 | 80 | 1021.3 |
| 20260904100831 | 54 | 345 | 0.0 | 1.0 | 0.00 | 0.00 | 0.00 | 80 | 1021.9 |
| 20260904100327 | 55 | 310 | 0.0 | 0.0 | 0.00 | 0.00 | 0.00 | 79 | 1021.9 |
| 20260904095822 | 55 | 321 | 1.0 | 1.0 | 0.00 | 0.00 | 0.00 | 79 | 1021.4 |
| 20260904095316 | 55 | 302 | 0.0 | 0.0 | 0.00 | 0.00 | 0.00 | 79 | 1021.8 |
| 20260904094811 | 54 | 277 | 0.0 | 0.0 | 0.00 | 0.00 | 0.00 | 80 | 1021.5 |
| 20260904094306 | 54 | 300 | 0.0 | 0.0 | 0.00 | 0.00 | 0.00 | 80 | 1021.5 |
| 20260904093803 | 54 | 275 | 0.0 | 0.0 | 0.00 | 0.00 | 0.00 | 80 | 1021.3 |
| 20260904093303 | 54 | 296 | 0.0 | 0.0 | 0.00 | 0.00 | 0.00 | 80 | 1021.1 |
| 20260904092758 | 54 | 284 | 0.0 | 0.0 | 0.00 | 0.00 | 0.00 | 81 | 1021.0 |
| 20260904092255 | 53 | 295 | 0.0 | 0.0 | 0.00 | 0.00 | 0.00 | 81 | 1021.1 |
| 20260904091751 | 53 | 298 | 0.0 | 0.0 | 0.00 | 0.00 | 0.00 | 81 | 1021.1 |
| 20260904091251 | 53 | 271 | 0.0 | 0.0 | 0.00 | 0.00 | 0.00 | 81 | 1021.0 |
| 20260904090746 | 53 | 296 | 0.0 | 0.0 | 0.00 | 0.00 | 0.00 | 80 | 1020.8 |
| 20260904090242 | 53 | 300 | 0.0 | 0.0 | 0.00 | 0.00 | 0.00 | 80 | 1021.1 |
| 20260904085737 | 53 | 302 | 0.0 | 0.0 | 0.00 | 0.00 | 0.00 | 80 | 1020.7 |
| 20260904085232 | 53 | 294 | 0.0 | 0.0 | 0.00 | 0.00 | 0.00 | 79 | 1021.0 |
| 20260904084726 | 53 | 294 | 0.0 | 0.0 | 0.00 | 0.00 | 0.00 | 78 | 1021.0 |
| 20260904084222 | 54 | 286 | 0.0 | 0.0 | 0.00 | 0.00 | 0.00 | 77 | 1020.8 |
| 20260904083719 | 54 | 274 | 0.0 | 0.0 | 0.00 | 0.00 | 0.00 | 76 | 1020.9 |
| 20260904083215 | 55 | 271 | 0.0 | 0.0 | 0.00 | 0.00 | 0.00 | 74 | 1020.5 |
| 20260904082715 | 56 | 278 | 0.0 | 0.0 | 0.00 | 0.00 | 0.00 | 73 | 1020.3 |
| 20260904082210 | 56 | 274 | 0.0 | 0.0 | 0.00 | 0.00 | 0.00 | 72 | 1020.4 |
| 20260904081705 | 57 | 271 | 0.0 | 0.0 | 0.00 | 0.00 | 0.00 | 73 | 1020.3 |
| 20260904081200 | 57 | 270 | 0.0 | 1.0 | 0.00 | 0.00 | 0.00 | 72 | 1020.2 |
| 20260904080656 | 57 | 253 | 0.0 | 1.0 | 0.00 | 0.00 | 0.00 | 72 | 1020.3 |
| 20260904080152 | 58 | 224 | 1.0 | 1.0 | 0.00 | 0.00 | 0.00 | 71 | 1019.9 |
| 20260904075649 | 58 | 251 | 1.0 | 1.0 | 0.00 | 0.00 | 0.00 | 70 | 1020.0 |
| 20260904075143 | 59 | 233 | 1.0 | 1.0 | 0.00 | 0.00 | 0.00 | 70 | 1019.8 |
| 20260904074642 | 59 | 228 | 1.0 | 2.0 | 0.00 | 0.00 | 0.00 | 69 | 1019.7 |
| 20260904074137 | 59 | 235 | 1.0 | 1.0 | 0.00 | 0.00 | 0.00 | 68 | 1019.9 |
| 20260904073632 | 60 | 216 | 1.0 | 1.0 | 0.00 | 0.00 | 0.00 | 67 | 1019.7 |
| 20260904073128 | 60 | 210 | 3.0 | 3.0 | 0.00 | 0.00 | 0.00 | 66 | 1019.6 |
| 20260904072624 | 60 | 238 | 2.0 | 2.0 | 0.00 | 0.00 | 0.00 | 66 | 1019.7 |
| 20260904072119 | 61 | 232 | 3.0 | 3.0 | 0.00 | 0.00 | 0.00 | 65 | 1019.8 |
| 20260904071615 | 62 | 207 | 1.0 | 1.0 | 0.00 | 0.00 | 0.00 | 64 | 1019.6 |
| 20260904071109 | 62 | 222 | 2.0 | 2.0 | 0.00 | 0.00 | 0.00 | 64 | 1019.6 |
| 20260904070608 | 62 | 249 | 2.0 | 2.0 | 0.00 | 0.00 | 0.00 | 63 | 1019.6 |
| 20260904070103 | 62 | 258 | 2.0 | 2.0 | 0.00 | 0.00 | 0.00 | 62 | 1019.7 |
| 20260904065558 | 63 | 245 | 1.0 | 1.0 | 0.00 | 0.00 | 0.00 | 63 | 1019.5 |
| 20260904065054 | 63 | 241 | 4.0 | 5.0 | 0.00 | 0.00 | 0.00 | 62 | 1019.5 |
| 20260904064550 | 64 | 216 | 3.0 | 5.0 | 0.00 | 0.00 | 0.00 | 61 | 1019.7 |
| 20260904064050 | 64 | 230 | 3.0 | 3.0 | 0.00 | 0.00 | 0.00 | 61 | 1019.4 |
| 20260904063546 | 65 | 181 | 3.0 | 3.0 | 0.00 | 0.00 | 0.00 | 60 | 1019.3 |
| 20260904063041 | 66 | 246 | 1.0 | 1.0 | 0.00 | 0.00 | 0.00 | 57 | 1019.5 |
| 20260904062538 | 66 | 178 | 2.0 | 3.0 | 0.00 | 0.00 | 0.00 | 55 | 1019.3 |
| 20260904062033 | 66 | 198 | 0.0 | 1.0 | 0.00 | 0.00 | 0.00 | 56 | 1019.3 |
| 20260904061528 | 66 | 218 | 1.0 | 1.0 | 0.00 | 0.00 | 0.00 | 55 | 1019.3 |
| 20260904061025 | 66 | 296 | 0.0 | 1.0 | 0.00 | 0.00 | 0.00 | 56 | 1019.2 |
| 20260904060521 | 66 | 165 | 1.0 | 1.0 | 0.00 | 0.00 | 0.00 | 55 | 1019.3 |
| 20260904060017 | 66 | 202 | 2.0 | 3.0 | 0.00 | 0.00 | 0.00 | 55 | 1019.0 |
| 20260904055512 | 67 | 222 | 3.0 | 3.0 | 0.00 | 0.00 | 0.00 | 54 | 1019.2 |
| 20260904055007 | 67 | 158 | 0.0 | 1.0 | 0.00 | 0.00 | 0.00 | 54 | 1019.4 |
| 20260904054503 | 67 | 176 | 1.0 | 2.0 | 0.00 | 0.00 | 0.00 | 54 | 1019.5 |
| 20260904053958 | 67 | 169 | 1.0 | 1.0 | 0.00 | 0.00 | 0.00 | 54 | 1019.6 |
| 20260904053458 | 67 | 269 | 3.0 | 3.0 | 0.00 | 0.00 | 0.00 | 53 | 1019.4 |
| 20260904052953 | 67 | 212 | 1.0 | 1.0 | 0.00 | 0.00 | 0.00 | 53 | 1019.3 |
| 20260904052449 | 68 | 142 | 3.0 | 5.0 | 0.00 | 0.00 | 0.00 | 53 | 1019.3 |
| 20260904051945 | 67 | 194 | 1.0 | 2.0 | 0.00 | 0.00 | 0.00 | 53 | 1019.6 |
| 20260904051442 | 67 | 269 | 2.0 | 2.0 | 0.00 | 0.00 | 0.00 | 53 | 1019.2 |
| 20260904050940 | 67 | 232 | 2.0 | 2.0 | 0.00 | 0.00 | 0.00 | 53 | 1019.4 |
| 20260904050437 | 67 | 185 | 2.0 | 3.0 | 0.00 | 0.00 | 0.00 | 52 | 1019.3 |
| 20260904045937 | 68 | 241 | 1.0 | 2.0 | 0.00 | 0.00 | 0.00 | 51 | 1019.6 |
| 20260904045433 | 69 | 240 | 2.0 | 2.0 | 0.00 | 0.00 | 0.00 | 50 | 1019.5 |
| 20260904044933 | 68 | 49 | 2.0 | 3.0 | 0.00 | 0.00 | 0.00 | 52 | 1019.5 |
| 20260904044429 | 68 | 236 | 3.0 | 3.0 | 0.00 | 0.00 | 0.00 | 51 | 1019.5 |
| 20260904043925 | 69 | 231 | 1.0 | 2.0 | 0.00 | 0.00 | 0.00 | 52 | 1019.3 |
| 20260904043421 | 69 | 314 | 3.0 | 5.0 | 0.00 | 0.00 | 0.00 | 51 | 1019.5 |
| 20260904042917 | 68 | 228 | 2.0 | 2.0 | 0.00 | 0.00 | 0.00 | 52 | 1019.4 |
| 20260904042413 | 68 | 123 | 2.0 | 2.0 | 0.00 | 0.00 | 0.00 | 53 | 1019.4 |
| 20260904041908 | 68 | 217 | 3.0 | 3.0 | 0.00 | 0.00 | 0.00 | 54 | 1019.5 |
| 20260904041404 | 68 | 193 | 3.0 | 5.0 | 0.00 | 0.00 | 0.00 | 54 | 1019.5 |
| 20260904040900 | 68 | 264 | 2.0 | 2.0 | 0.00 | 0.00 | 0.00 | 53 | 1019.4 |
| 20260904040354 | 69 | 293 | 0.0 | 0.0 | 0.00 | 0.00 | 0.00 | 52 | 1019.4 |
| 20260904035850 | 69 | 324 | 1.0 | 2.0 | 0.00 | 0.00 | 0.00 | 52 | 1019.5 |
| 20260904035346 | 69 | 198 | 0.0 | 1.0 | 0.00 | 0.00 | 0.00 | 52 | 1019.5 |
| 20260904034845 | 69 | 314 | 0.0 | 1.0 | 0.00 | 0.00 | 0.00 | 52 | 1019.6 |
| 20260904034341 | 69 | 229 | 3.0 | 3.0 | 0.00 | 0.00 | 0.00 | 52 | 1019.8 |
| 20260904033836 | 68 | 263 | 0.0 | 1.0 | 0.00 | 0.00 | 0.00 | 53 | 1019.8 |
| 20260904033332 | 68 | 252 | 3.0 | 3.0 | 0.00 | 0.00 | 0.00 | 53 | 1019.9 |
| 20260904032828 | 68 | 323 | 2.0 | 3.0 | 0.00 | 0.00 | 0.00 | 54 | 1020.2 |
| 20260904032323 | 66 | 247 | 3.0 | 3.0 | 0.00 | 0.00 | 0.00 | 59 | 1020.6 |
| 20260904031816 | 69 | 230 | 2.0 | 2.0 | 0.00 | 0.00 | 0.00 | 56 | 1020.7 |
| 20260904031312 | 69 | 313 | 1.0 | 1.0 | 0.00 | 0.00 | 0.00 | 56 | 1020.6 |
| 20260904030808 | 68 | 261 | 1.0 | 1.0 | 0.00 | 0.00 | 0.00 | 57 | 1020.7 |
| 20260904030303 | 67 | 298 | 0.0 | 1.0 | 0.00 | 0.00 | 0.00 | 59 | 1021.1 |
| 20260904025759 | 67 | 170 | 3.0 | 3.0 | 0.00 | 0.00 | 0.00 | 58 | 1021.0 |
| 20260904025255 | 66 | 276 | 0.0 | 1.0 | 0.00 | 0.00 | 0.00 | 61 | 1021.4 |
| 20260904024749 | 65 | 224 | 2.0 | 2.0 | 0.00 | 0.00 | 0.00 | 60 | 1021.3 |
| 20260904024245 | 66 | 221 | 3.0 | 5.0 | 0.00 | 0.00 | 0.00 | 59 | 1021.4 |
| 20260904023741 | 66 | 55 | 1.0 | 2.0 | 0.00 | 0.00 | 0.00 | 58 | 1021.6 |
| 20260904023237 | 67 | 234 | 0.0 | 0.0 | 0.00 | 0.00 | 0.00 | 58 | 1021.9 |
| 20260904022736 | 67 | 285 | 2.0 | 3.0 | 0.00 | 0.00 | 0.00 | 56 | 1021.9 |
| 20260904022234 | 67 | 66 | 1.0 | 2.0 | 0.00 | 0.00 | 0.00 | 59 | 1022.1 |
| 20260904021730 | 65 | 320 | 0.0 | 0.0 | 0.00 | 0.00 | 0.00 | 59 | 1022.0 |
| 20260904021230 | 65 | 286 | 3.0 | 5.0 | 0.00 | 0.00 | 0.00 | 59 | 1022.2 |
| 20260904020726 | 65 | 325 | 0.0 | 1.0 | 0.00 | 0.00 | 0.00 | 59 | 1022.1 |
| 20260904020225 | 66 | 197 | 3.0 | 5.0 | 0.00 | 0.00 | 0.00 | 56 | 1022.1 |
| 20260904015723 | 66 | 318 | 0.0 | 0.0 | 0.00 | 0.00 | 0.00 | 59 | 1022.1 |
| 20260904015219 | 65 | 324 | 0.0 | 0.0 | 0.00 | 0.00 | 0.00 | 58 | 1022.2 |
| 20260904014717 | 66 | 218 | 1.0 | 1.0 | 0.00 | 0.00 | 0.00 | 57 | 1022.1 |
| 20260904014213 | 66 | 286 | 0.0 | 1.0 | 0.00 | 0.00 | 0.00 | 59 | 1022.1 |
| 20260904013709 | 65 | 288 | 1.0 | 1.0 | 0.00 | 0.00 | 0.00 | 58 | 1022.2 |
| 20260904013205 | 64 | 306 | 1.0 | 2.0 | 0.00 | 0.00 | 0.00 | 61 | 1022.3 |
| 20260904012701 | 65 | 169 | 1.0 | 2.0 | 0.00 | 0.00 | 0.00 | 58 | 1022.2 |
| 20260904012159 | 64 | 18 | 1.0 | 1.0 | 0.00 | 0.00 | 0.00 | 62 | 1022.7 |
| 20260904011659 | 62 | 324 | 0.0 | 1.0 | 0.00 | 0.00 | 0.00 | 64 | 1022.6 |
| 20260904011154 | 62 | 199 | 1.0 | 1.0 | 0.00 | 0.00 | 0.00 | 65 | 1022.8 |
| 20260904010650 | 63 | 266 | 2.0 | 2.0 | 0.00 | 0.00 | 0.00 | 63 | 1022.8 |
| 20260904010146 | 63 | 173 | 2.0 | 2.0 | 0.00 | 0.00 | 0.00 | 62 | 1023.0 |
| 20260904005641 | 64 | 350 | 2.0 | 2.0 | 0.00 | 0.00 | 0.00 | 63 | 1023.1 |
| 20260904005137 | 62 | 164 | 0.0 | 1.0 | 0.00 | 0.00 | 0.00 | 64 | 1023.4 |
| 20260904004632 | 60 | 229 | 1.0 | 1.0 | 0.00 | 0.00 | 0.00 | 66 | 1023.0 |
| 20260904004131 | 61 | 209 | 3.0 | 5.0 | 0.00 | 0.00 | 0.00 | 66 | 1023.5 |
| 20260904003628 | 62 | 234 | 3.0 | 3.0 | 0.00 | 0.00 | 0.00 | 63 | 1023.4 |
| 20260904003124 | 62 | 164 | 3.0 | 3.0 | 0.00 | 0.00 | 0.00 | 64 | 1023.4 |
| 20260904002620 | 62 | 197 | 1.0 | 1.0 | 0.00 | 0.00 | 0.00 | 64 | 1023.4 |
| 20260904002120 | 62 | 9 | 1.0 | 1.0 | 0.00 | 0.00 | 0.00 | 66 | 1023.5 |
| 20260904001615 | 62 | 339 | 0.0 | 0.0 | 0.00 | 0.00 | 0.00 | 64 | 1023.6 |
| 20260904001114 | 62 | 246 | 0.0 | 1.0 | 0.00 | 0.00 | 0.00 | 65 | 1023.7 |
| 20260904000609 | 61 | 230 | 1.0 | 2.0 | 0.00 | 0.00 | 0.00 | 66 | 1023.7 |
| 20260904000105 | 61 | 186 | 1.0 | 1.0 | 0.00 | 0.00 | 0.00 | 66 | 1023.6 |
| 20260903235604 | 61 | 335 | 1.0 | 2.0 | 0.00 | 0.00 | 0.00 | 66 | 1023.8 |
| 20260903235100 | 60 | 43 | 1.0 | 1.0 | 0.00 | 0.00 | 0.00 | 67 | 1023.8 |
| 20260903234555 | 60 | 15 | 0.0 | 1.0 | 0.00 | 0.00 | 0.00 | 67 | 1023.6 |
| 20260903234051 | 60 | 220 | 1.0 | 2.0 | 0.00 | 0.00 | 0.00 | 67 | 1023.4 |
| 20260903233547 | 59 | 355 | 0.0 | 0.0 | 0.00 | 0.00 | 0.00 | 69 | 1023.2 |
| 20260903233042 | 58 | 289 | 0.0 | 0.0 | 0.00 | 0.00 | 0.00 | 71 | 1023.2 |
| 20260903232538 | 58 | 208 | 1.0 | 2.0 | 0.00 | 0.00 | 0.00 | 70 | 1023.2 |
| 20260903232033 | 59 | 254 | 2.0 | 2.0 | 0.00 | 0.00 | 0.00 | 69 | 1023.2 |
| 20260903231527 | 58 | 13 | 0.0 | 0.0 | 0.00 | 0.00 | 0.00 | 70 | 1023.5 |
| 20260903231021 | 58 | 302 | 0.0 | 0.0 | 0.00 | 0.00 | 0.00 | 70 | 1023.6 |
| 20260903230518 | 58 | 7 | 0.0 | 1.0 | 0.00 | 0.00 | 0.00 | 70 | 1023.6 |
| 20260903230016 | 57 | 30 | 1.0 | 1.0 | 0.00 | 0.00 | 0.00 | 70 | 1023.7 |
| 20260903225514 | 55 | 342 | 0.0 | 0.0 | 0.00 | 0.00 | 0.00 | 74 | 1023.5 |
| 20260903225010 | 56 | 47 | 1.0 | 1.0 | 0.00 | 0.00 | 0.00 | 72 | 1023.8 |
| 20260903224506 | 55 | 331 | 0.0 | 0.0 | 0.00 | 0.00 | 0.00 | 75 | 1023.8 |
| 20260903224002 | 54 | 21 | 1.0 | 1.0 | 0.00 | 0.00 | 0.00 | 75 | 1023.7 |
| 20260903223501 | 52 | 30 | 1.0 | 1.0 | 0.00 | 0.00 | 0.00 | 77 | 1023.7 |
| 20260903223000 | 52 | 224 | 0.0 | 0.0 | 0.00 | 0.00 | 0.00 | 78 | 1023.8 |
| 20260903222455 | 53 | 30 | 1.0 | 2.0 | 0.00 | 0.00 | 0.00 | 76 | 1023.8 |
| 20260903221954 | 52 | 23 | 1.0 | 1.0 | 0.00 | 0.00 | 0.00 | 78 | 1023.7 |
| 20260903221449 | 51 | 204 | 1.0 | 2.0 | 0.00 | 0.00 | 0.00 | 78 | 1023.8 |
| 20260903220947 | 51 | 59 | 1.0 | 2.0 | 0.00 | 0.00 | 0.00 | 79 | 1023.7 |
| 20260903220441 | 51 | 38 | 0.0 | 0.0 | 0.00 | 0.00 | 0.00 | 80 | 1023.9 |
| 20260903215939 | 49 | 357 | 0.0 | 0.0 | 0.00 | 0.00 | 0.00 | 85 | 1023.8 |
| 20260903215436 | 48 | 149 | 0.0 | 1.0 | 0.00 | 0.00 | 0.00 | 88 | 1023.8 |
| 20260903214934 | 48 | 352 | 0.0 | 0.0 | 0.00 | 0.00 | 0.00 | 97 | 1024.0 |
| 20260903214430 | 46 | 338 | 0.0 | 0.0 | 0.00 | 0.00 | 0.00 | 99 | 1023.7 |
| 20260903213929 | 45 | 22 | 0.0 | 0.0 | 0.00 | 0.00 | 0.00 | 99 | 1023.8 |
| 20260903213425 | 43 | 354 | 0.0 | 0.0 | 0.00 | 0.00 | 0.00 | 99 | 1023.9 |
| 20260903212921 | 41 | 266 | 0.0 | 0.0 | 0.00 | 0.00 | 0.00 | 99 | 1023.8 |
| 20260903212416 | 40 | 266 | 0.0 | 0.0 | 0.00 | 0.00 | 0.00 | 99 | 1023.7 |
| 20260903211916 | 40 | 292 | 0.0 | 0.0 | 0.00 | 0.00 | 0.00 | 99 | 1023.6 |
| 20260903211412 | 39 | 306 | 0.0 | 0.0 | 0.00 | 0.00 | 0.00 | 99 | 1023.7 |
| 20260903210908 | 39 | 316 | 0.0 | 0.0 | 0.00 | 0.00 | 0.00 | 99 | 1023.6 |
| 20260903210407 | 38 | 316 | 0.0 | 0.0 | 0.00 | 0.00 | 0.00 | 99 | 1023.5 |
| 20260903205903 | 38 | 283 | 0.0 | 0.0 | 0.00 | 0.00 | 0.00 | 99 | 1023.4 |
| 20260903205402 | 38 | 217 | 0.0 | 0.0 | 0.00 | 0.00 | 0.00 | 99 | 1023.2 |
| 20260903204857 | 37 | 303 | 0.0 | 0.0 | 0.00 | 0.00 | 0.00 | 99 | 1023.1 |
| 20260903204353 | 37 | 286 | 0.0 | 0.0 | 0.00 | 0.00 | 0.00 | 99 | 1023.1 |
| 20260903203848 | 37 | 302 | 0.0 | 0.0 | 0.00 | 0.00 | 0.00 | 99 | 1022.8 |
| 20260903203344 | 37 | 274 | 0.0 | 0.0 | 0.00 | 0.00 | 0.00 | 99 | 1023.0 |
| 20260903202843 | 37 | 268 | 0.0 | 0.0 | 0.00 | 0.00 | 0.00 | 99 | 1023.1 |
| 20260903202340 | 37 | 265 | 0.0 | 0.0 | 0.00 | 0.00 | 0.00 | 99 | 1022.8 |
| 20260903201839 | 37 | 277 | 0.0 | 0.0 | 0.00 | 0.00 | 0.00 | 99 | 1022.9 |
| 20260903201335 | 37 | 273 | 0.0 | 0.0 | 0.00 | 0.00 | 0.00 | 99 | 1022.9 |
| 20260903200833 | 37 | 318 | 0.0 | 0.0 | 0.00 | 0.00 | 0.00 | 99 | 1022.9 |
| 20260903200329 | 37 | 282 | 0.0 | 0.0 | 0.00 | 0.00 | 0.00 | 98 | 1022.7 |
| 20260903195824 | 37 | 281 | 0.0 | 0.0 | 0.00 | 0.00 | 0.00 | 98 | 1022.7 |
| 20260903195320 | 37 | 279 | 0.0 | 0.0 | 0.00 | 0.00 | 0.00 | 98 | 1022.6 |
| 20260903194815 | 36 | 284 | 0.0 | 0.0 | 0.00 | 0.00 | 0.00 | 98 | 1022.7 |
| 20260903194310 | 36 | 286 | 0.0 | 0.0 | 0.00 | 0.00 | 0.00 | 98 | 1022.3 |
| 20260903193806 | 37 | 286 | 0.0 | 0.0 | 0.00 | 0.00 | 0.00 | 98 | 1022.5 |
| 20260903193302 | 36 | 293 | 0.0 | 0.0 | 0.00 | 0.00 | 0.00 | 98 | 1022.5 |
| 20260903192757 | 37 | 286 | 0.0 | 0.0 | 0.00 | 0.00 | 0.00 | 98 | 1022.4 |
| 20260903192253 | 37 | 286 | 0.0 | 0.0 | 0.00 | 0.00 | 0.00 | 98 | 1022.5 |
| 20260903191748 | 37 | 288 | 0.0 | 0.0 | 0.00 | 0.00 | 0.00 | 98 | 1022.4 |
| 20260903191238 | 37 | 293 | 0.0 | 0.0 | 0.00 | 0.00 | 0.00 | 98 | 1022.3 |
| 20260903190733 | 38 | 286 | 0.0 | 0.0 | 0.00 | 0.00 | 0.00 | 98 | 1022.1 |
| 20260903190232 | 38 | 281 | 0.0 | 0.0 | 0.00 | 0.00 | 0.00 | 97 | 1022.2 |
| 20260903185728 | 38 | 284 | 0.0 | 0.0 | 0.00 | 0.00 | 0.00 | 98 | 1022.2 |
| 20260903185222 | 39 | 284 | 0.0 | 0.0 | 0.00 | 0.00 | 0.00 | 98 | 1022.2 |
| 20260903184719 | 38 | 290 | 0.0 | 0.0 | 0.00 | 0.00 | 0.00 | 97 | 1022.1 |
| 20260903184215 | 38 | 295 | 0.0 | 0.0 | 0.00 | 0.00 | 0.00 | 97 | 1022.0 |
| 20260903183714 | 39 | 293 | 0.0 | 0.0 | 0.00 | 0.00 | 0.00 | 98 | 1021.8 |
| 20260903183209 | 38 | 303 | 0.0 | 0.0 | 0.00 | 0.00 | 0.00 | 98 | 1022.0 |
| 20260903182707 | 38 | 292 | 0.0 | 0.0 | 0.00 | 0.00 | 0.00 | 97 | 1021.6 |
| 20260903182203 | 38 | 293 | 0.0 | 0.0 | 0.00 | 0.00 | 0.00 | 97 | 1021.8 |
| 20260903181702 | 39 | 285 | 0.0 | 0.0 | 0.00 | 0.00 | 0.00 | 97 | 1021.5 |
| 20260903181156 | 39 | 284 | 0.0 | 0.0 | 0.00 | 0.00 | 0.00 | 97 | 1021.4 |
| 20260903180652 | 39 | 278 | 0.0 | 0.0 | 0.00 | 0.00 | 0.00 | 96 | 1021.4 |
| 20260903180151 | 39 | 287 | 0.0 | 0.0 | 0.00 | 0.00 | 0.00 | 96 | 1021.3 |
| 20260903175645 | 39 | 282 | 0.0 | 0.0 | 0.00 | 0.00 | 0.00 | 96 | 1021.3 |
| 20260903175144 | 39 | 291 | 0.0 | 0.0 | 0.00 | 0.00 | 0.00 | 96 | 1021.3 |
| 20260903174639 | 39 | 291 | 0.0 | 0.0 | 0.00 | 0.00 | 0.00 | 96 | 1021.5 |
| 20260903174134 | 39 | 291 | 0.0 | 0.0 | 0.00 | 0.00 | 0.00 | 96 | 1021.4 |
| 20260903173629 | 40 | 293 | 0.0 | 0.0 | 0.00 | 0.00 | 0.00 | 96 | 1021.6 |
| 20260903173126 | 40 | 289 | 0.0 | 0.0 | 0.00 | 0.00 | 0.00 | 96 | 1021.2 |
| 20260903172625 | 40 | 296 | 0.0 | 0.0 | 0.00 | 0.00 | 0.00 | 96 | 1021.5 |
| 20260903172121 | 41 | 295 | 0.0 | 0.0 | 0.00 | 0.00 | 0.00 | 96 | 1021.3 |
| 20260903171620 | 41 | 302 | 0.0 | 0.0 | 0.00 | 0.00 | 0.00 | 96 | 1021.4 |
| 20260903171117 | 41 | 290 | 0.0 | 0.0 | 0.00 | 0.00 | 0.00 | 95 | 1021.5 |
| 20260903170615 | 41 | 275 | 0.0 | 0.0 | 0.00 | 0.00 | 0.00 | 95 | 1021.4 |
| 20260903170111 | 41 | 258 | 0.0 | 0.0 | 0.00 | 0.00 | 0.00 | 95 | 1021.4 |
| 20260903165608 | 41 | 255 | 0.0 | 0.0 | 0.00 | 0.00 | 0.00 | 95 | 1021.2 |
| 20260903165104 | 41 | 264 | 0.0 | 1.0 | 0.00 | 0.00 | 0.00 | 95 | 1021.5 |
| 20260903164559 | 41 | 280 | 0.0 | 0.0 | 0.00 | 0.00 | 0.00 | 94 | 1021.5 |
| 20260903164055 | 42 | 287 | 0.0 | 0.0 | 0.00 | 0.00 | 0.00 | 94 | 1021.4 |
| 20260903163555 | 42 | 278 | 0.0 | 0.0 | 0.00 | 0.00 | 0.00 | 94 | 1021.5 |
| 20260903163051 | 42 | 271 | 0.0 | 0.0 | 0.00 | 0.00 | 0.00 | 94 | 1021.8 |
| 20260903162547 | 42 | 267 | 0.0 | 0.0 | 0.00 | 0.00 | 0.00 | 93 | 1021.8 |
| 20260903162043 | 43 | 252 | 0.0 | 1.0 | 0.00 | 0.00 | 0.00 | 93 | 1021.6 |
| 20260903161538 | 43 | 271 | 0.0 | 0.0 | 0.00 | 0.00 | 0.00 | 92 | 1021.9 |
| 20260903161034 | 43 | 282 | 0.0 | 0.0 | 0.00 | 0.00 | 0.00 | 92 | 1021.9 |
| 20260903160532 | 44 | 283 | 0.0 | 0.0 | 0.00 | 0.00 | 0.00 | 92 | 1021.9 |
| 20260903160027 | 44 | 246 | 0.0 | 1.0 | 0.00 | 0.00 | 0.00 | 92 | 1022.1 |
| 20260903155526 | 44 | 268 | 0.0 | 0.0 | 0.00 | 0.00 | 0.00 | 91 | 1021.9 |
| 20260903155022 | 44 | 240 | 0.0 | 0.0 | 0.00 | 0.00 | 0.00 | 91 | 1022.1 |
| 20260903154518 | 45 | 273 | 0.0 | 0.0 | 0.00 | 0.00 | 0.00 | 90 | 1022.2 |
| 20260903154014 | 45 | 263 | 0.0 | 0.0 | 0.00 | 0.00 | 0.00 | 89 | 1022.5 |
| 20260903153509 | 46 | 273 | 0.0 | 0.0 | 0.00 | 0.00 | 0.00 | 89 | 1022.3 |
| 20260903153005 | 46 | 285 | 0.0 | 0.0 | 0.00 | 0.00 | 0.00 | 88 | 1022.4 |
| 20260903152500 | 46 | 270 | 0.0 | 1.0 | 0.00 | 0.00 | 0.00 | 87 | 1022.5 |
| 20260903151957 | 47 | 277 | 0.0 | 0.0 | 0.00 | 0.00 | 0.00 | 87 | 1022.3 |
| 20260903151450 | 48 | 274 | 0.0 | 0.0 | 0.00 | 0.00 | 0.00 | 86 | 1022.4 |
| 20260903150946 | 48 | 268 | 0.0 | 0.0 | 0.00 | 0.00 | 0.00 | 86 | 1022.4 |
| 20260903150445 | 48 | 270 | 0.0 | 0.0 | 0.00 | 0.00 | 0.00 | 85 | 1022.3 |
| 20260903145940 | 49 | 279 | 0.0 | 0.0 | 0.00 | 0.00 | 0.00 | 85 | 1022.4 |
| 20260903145435 | 49 | 309 | 0.0 | 0.0 | 0.00 | 0.00 | 0.00 | 84 | 1022.3 |
| 20260903144930 | 50 | 310 | 0.0 | 0.0 | 0.00 | 0.00 | 0.00 | 84 | 1022.2 |
| 20260903144429 | 49 | 254 | 0.0 | 1.0 | 0.00 | 0.00 | 0.00 | 85 | 1022.3 |
| 20260903143925 | 49 | 271 | 0.0 | 0.0 | 0.00 | 0.00 | 0.00 | 85 | 1022.4 |
| 20260903143422 | 49 | 287 | 0.0 | 0.0 | 0.00 | 0.00 | 0.00 | 84 | 1022.6 |
| 20260903142917 | 50 | 286 | 0.0 | 0.0 | 0.00 | 0.00 | 0.00 | 84 | 1022.4 |
| 20260903142413 | 50 | 285 | 0.0 | 0.0 | 0.00 | 0.00 | 0.00 | 83 | 1022.3 |
| 20260903141909 | 50 | 274 | 0.0 | 0.0 | 0.00 | 0.00 | 0.00 | 83 | 1022.1 |
| 20260903141404 | 50 | 258 | 0.0 | 0.0 | 0.00 | 0.00 | 0.00 | 83 | 1022.3 |
| 20260903140900 | 50 | 270 | 0.0 | 0.0 | 0.00 | 0.00 | 0.00 | 82 | 1022.1 |
| 20260903140355 | 50 | 282 | 0.0 | 0.0 | 0.00 | 0.00 | 0.00 | 82 | 1022.3 |
| 20260903135850 | 51 | 267 | 0.0 | 1.0 | 0.00 | 0.00 | 0.00 | 82 | 1022.3 |
| 20260903135346 | 51 | 284 | 0.0 | 0.0 | 0.00 | 0.00 | 0.00 | 82 | 1022.4 |
| 20260903134844 | 51 | 263 | 0.0 | 1.0 | 0.00 | 0.00 | 0.00 | 82 | 1022.2 |
| 20260903134340 | 51 | 268 | 0.0 | 0.0 | 0.00 | 0.00 | 0.00 | 82 | 1022.3 |
| 20260903133837 | 51 | 297 | 0.0 | 0.0 | 0.00 | 0.00 | 0.00 | 82 | 1022.3 |
| 20260903133334 | 51 | 236 | 1.0 | 1.0 | 0.00 | 0.00 | 0.00 | 82 | 1022.5 |
| 20260903132834 | 50 | 226 | 1.0 | 2.0 | 0.00 | 0.00 | 0.00 | 83 | 1022.5 |
| 20260903132330 | 50 | 274 | 0.0 | 0.0 | 0.00 | 0.00 | 0.00 | 83 | 1022.7 |
| 20260903131824 | 50 | 290 | 0.0 | 0.0 | 0.00 | 0.00 | 0.00 | 84 | 1022.4 |
| 20260903131324 | 50 | 288 | 0.0 | 0.0 | 0.00 | 0.00 | 0.00 | 84 | 1022.3 |
| 20260903130823 | 50 | 275 | 0.0 | 0.0 | 0.00 | 0.00 | 0.00 | 84 | 1022.4 |
| 20260903130318 | 50 | 233 | 1.0 | 1.0 | 0.00 | 0.00 | 0.00 | 85 | 1022.4 |
| 20260903125817 | 50 | 294 | 1.0 | 1.0 | 0.00 | 0.00 | 0.00 | 86 | 1022.4 |
| 20260903125312 | 49 | 264 | 0.0 | 1.0 | 0.00 | 0.00 | 0.00 | 87 | 1022.4 |
| 20260903124811 | 49 | 259 | 0.0 | 0.0 | 0.00 | 0.00 | 0.00 | 87 | 1022.4 |
| 20260903124307 | 49 | 291 | 0.0 | 0.0 | 0.00 | 0.00 | 0.00 | 87 | 1022.2 |
| 20260903123806 | 49 | 277 | 0.0 | 0.0 | 0.00 | 0.00 | 0.00 | 87 | 1022.1 |
| 20260903123306 | 48 | 243 | 1.0 | 1.0 | 0.00 | 0.00 | 0.00 | 88 | 1022.1 |
| 20260903122804 | 48 | 255 | 0.0 | 1.0 | 0.00 | 0.00 | 0.00 | 88 | 1022.2 |
| 20260903122259 | 48 | 245 | 1.0 | 1.0 | 0.00 | 0.00 | 0.00 | 88 | 1021.9 |
| 20260903121757 | 48 | 248 | 1.0 | 1.0 | 0.00 | 0.00 | 0.00 | 88 | 1022.1 |
| 20260903121253 | 48 | 242 | 1.0 | 1.0 | 0.00 | 0.00 | 0.00 | 88 | 1021.9 |
| 20260903120749 | 48 | 228 | 1.0 | 1.0 | 0.00 | 0.00 | 0.00 | 89 | 1021.8 |
| 20260903120242 | 48 | 289 | 0.0 | 0.0 | 0.00 | 0.00 | 0.00 | 89 | 1022.1 |
| 20260903115740 | 48 | 270 | 0.0 | 0.0 | 0.00 | 0.07 | 0.07 | 89 | 1022.0 |
| 20260903115236 | 48 | 267 | 0.0 | 0.0 | 0.00 | 0.07 | 0.07 | 88 | 1021.8 |
| 20260903114730 | 48 | 281 | 0.0 | 0.0 | 0.00 | 0.07 | 0.07 | 88 | 1021.8 |
| 20260903114226 | 48 | 293 | 0.0 | 0.0 | 0.00 | 0.07 | 0.07 | 87 | 1021.5 |
| 20260903113721 | 49 | 270 | 0.0 | 0.0 | 0.00 | 0.07 | 0.07 | 87 | 1021.5 |
| 20260903113217 | 49 | 267 | 0.0 | 0.0 | 0.00 | 0.07 | 0.07 | 87 | 1021.4 |
| 20260903112713 | 49 | 281 | 0.0 | 0.0 | 0.00 | 0.07 | 0.07 | 86 | 1021.4 |
| 20260903112209 | 50 | 280 | 0.0 | 0.0 | 0.00 | 0.07 | 0.07 | 85 | 1021.2 |
| 20260903111707 | 50 | 296 | 0.0 | 0.0 | 0.00 | 0.07 | 0.07 | 85 | 1021.5 |
| 20260903111203 | 50 | 276 | 0.0 | 0.0 | 0.00 | 0.07 | 0.07 | 84 | 1021.3 |
| 20260903110659 | 51 | 276 | 0.0 | 0.0 | 0.00 | 0.07 | 0.07 | 84 | 1021.4 |
| 20260903110154 | 51 | 258 | 0.0 | 0.0 | 0.00 | 0.07 | 0.07 | 84 | 1021.0 |
| 20260903105654 | 51 | 254 | 0.0 | 1.0 | 0.00 | 0.07 | 0.07 | 83 | 1021.1 |
| 20260903105149 | 51 | 274 | 0.0 | 0.0 | 0.00 | 0.07 | 0.07 | 83 | 1021.1 |
| 20260903104648 | 51 | 264 | 0.0 | 0.0 | 0.00 | 0.07 | 0.07 | 83 | 1021.1 |
| 20260903104144 | 52 | 249 | 1.0 | 1.0 | 0.00 | 0.07 | 0.07 | 83 | 1020.9 |
| 20260903103639 | 52 | 138 | 1.0 | 1.0 | 0.00 | 0.07 | 0.07 | 83 | 1021.0 |
| 20260903103136 | 52 | 274 | 0.0 | 0.0 | 0.00 | 0.07 | 0.07 | 83 | 1021.0 |
| 20260903102631 | 52 | 284 | 0.0 | 0.0 | 0.00 | 0.07 | 0.07 | 83 | 1020.8 |